Index of /SavoieMtBlanc/Paysage-Lacs

[ICO]NameLast modifiedSizeDescription

[PARENTDIR]Parent Directory  -  
[IMG]2007-07-25-Aiguebelette-3.jpg2017-07-17 11:22 184K 
[IMG]2007-08-29-orage1B.jpg2017-07-17 11:22 213K 
[IMG]2009-06-12-Nivolet11.jpg2017-07-17 11:22 301K 
[IMG]2009-07-20-LacBourget-1.jpg2017-07-17 11:22 377K 
[IMG]2009-11-16-PortBourget09.jpg2017-07-17 11:22 317K 
[IMG]2010-01-04-LacBourget-1.jpg2017-07-17 11:22 320K 
[IMG]2010-01-05-Tresserve-4.jpg2017-07-17 11:22 195K 
[IMG]2010-05-04-LacAnnecy01.jpg2017-07-17 11:22 231K 
[IMG]2010-08-19-Vevey-1.jpg2017-07-17 11:22 445K 
[IMG]2010-08-21-Grammont03.jpg2017-07-17 11:22 309K 
[IMG]2010-08-21-Grammont11.jpg2017-07-17 11:22 302K 
[IMG]2010-09-14-BarqueSavoie-7.jpg2017-07-17 11:22 239K 
[IMG]2012-02-13-Nernier-10.jpg2017-07-17 11:23 216K 
[IMG]2012-02-13-Nernier-12.jpg2017-07-17 11:23 194K 
[IMG]2014-06-08-LacVallon01.jpg2017-07-17 11:23 455K 
[IMG]2014-07-03-MtBillat03.jpg2017-07-17 11:23 214K 
[IMG]2015-02-28-RandoNuit-7.jpg2017-07-17 11:23 261K 
[IMG]2015-04-29-LacVallon-1.jpg2017-07-17 11:23 414K 
[IMG]2015-08-20-NocturnePlage-5.jpg2017-07-17 11:23 241K 
[IMG]2015-08-20-NocturnePlage-30.jpg2017-07-17 11:23 318K 
[IMG]2015-08-30-LacMineOr-35.jpg2017-07-17 11:23 292K 
[IMG]2016-01-17-LacVallon-1.jpg2017-07-17 11:23 233K 
[IMG]2016-01-19-LacJotty-1.jpg2017-07-17 11:23 271K 
[IMG]2016-06-28-1.jpg2017-07-17 11:23 241K 
[IMG]2016-09-23-LacMontriond-53B.jpg2017-07-17 11:23 327K 
[IMG]2016-10-04-LacVallon-6.jpg2017-07-17 11:23 521K 
[IMG]2017-06-27-PlageLugrin-1.jpg2017-07-17 11:24 528K 
[IMG]Pano-GrdeSassiere.jpg2017-07-17 11:24 494K 
[IMG]Pano-zone-humide1.jpg2017-07-17 11:24 357K 
[IMG]PanoramaTournette.jpg2017-07-17 11:24 421K 
[TXT]albumfiles.txt2017-07-17 11:23 1.7K 
[   ]comments.properties2017-07-17 11:24 1.8K 
[   ]meta.properties2017-07-17 11:24 71  

Apache Server at temp.alpesphoto.com Port 80